Location: Peebles
(55.6412°N, 3.1714°W)
Time: 15:23:44
(UTC+01:00)

FENGYUN 1C DEB - Pass Details

Date: 08 July 2022
Orbit: 774 x 850 km, 99.1° (Epoch: 16 August)

Event Time Altitude Azimuth Distance (km) Brightness Sun altitude
Rises 22:44:30 0° 13° (NNE) 3,415 ? -5.4°
Reaches altitude 10° 22:49:38 10° 332° (NNW) 2,488 ? -5.8°
Maximum altitude 22:50:09 10° 326° (NNW) 2,479 ? -5.9°
Drops below altitude 10° 22:50:39 10° 321° (NW) 2,488 ? -5.9°
Sets 22:55:49 0° 280° (W) 3,423 ? -6.3°
